Theta_e
304 304 304 304 304 305 305 305 305 304 303 297 295 295 290 288 289 299 301 302 305 291 283 285 288 287 287 292 293 294 294 291 291 291 291 290 290 289 288 287 286 286 287 286 285 287 285 287 285 287 290 290 291 291 291 291 291 287 286 287 288 301 279 279 280 280 283 287 288 289 287 285 285 285 282 282 283 284 279 275 277 277 278 276 274 273 276
303 303 304 304 304 305 305 305 305 305 303 298 295 288 287 289 290 293 301 303 300 290 283 282 278 284 290 290 291 292 294 293 290 290 289 288 287 287 287 289 288 287 288 286 285 288 281 287 287 287 290 290 294 293 293 293 292 291 289 287 291 284 283 282 277 275 278 279 281 281 284 283 281 282 281 282 282 280 279 279 278 278 279 276 277 272 275
303 303 304 304 304 305 305 305 305 304 304 301 290 289 289 288 291 292 296 301 298 288 286 285 279 282 285 286 285 287 289 291 291 291 288 290 288 287 286 289 289 288 288 287 287 288 285 284 287 287 287 289 291 292 295 295 292 297 297 301 292 285 283 280 274 273 270 269 270 272 276 281 280 282 280 282 281 281 281 281 275 275 278 278 273 270 277
303 303 303 304 304 304 304 304 304 304 304 302 291 288 288 286 280 286 289 294 293 293 294 291 287 280 283 279 286 287 285 289 291 290 289 290 289 287 287 287 288 286 286 285 286 286 289 285 285 284 285 287 290 290 293 298 299 306 306 299 291 282 284 282 279 279 278 278 278 281 282 281 280 282 280 281 280 280 280 277 271 274 276 275 277 280 281
303 303 303 304 304 304 305 305 304 303 303 302 287 287 289 287 283 280 282 288 290 287 290 288 288 283 287 280 286 283 285 287 289 292 287 291 289 288 286 285 284 283 284 283 283 284 285 286 283 283 284 286 288 290 290 291 297 305 301 299 288 285 282 283 283 282 282 282 282 284 283 280 280 280 282 281 280 279 279 278 279 279 281 274 280 280 279
302 303 303 303 304 304 304 304 304 303 302 303 292 286 286 282 282 286 288 284 282 285 286 290 288 289 288 284 287 284 284 285 282 288 290 291 290 285 286 285 284 284 284 283 279 281 282 283 280 284 285 283 286 287 288 288 292 298 292 294 289 284 280 285 284 282 283 283 284 286 285 284 283 282 280 281 281 281 279 280 280 280 274 276 279 280 279
302 302 303 303 304 304 304 304 304 303 301 301 291 287 284 285 283 285 288 283 286 289 288 290 289 287 289 284 286 284 284 283 286 286 286 287 287 286 279 282 283 284 284 281 279 280 278 279 282 282 282 282 282 281 283 287 286 288 289 289 288 285 281 284 285 283 284 284 285 286 285 284 284 283 281 280 281 280 281 280 280 280 279 279 280 280 279
302 302 303 303 304 304 305 305 304 302 301 297 293 288 285 282 282 282 285 284 284 287 291 289 288 285 289 284 285 285 284 284 286 287 285 280 284 288 283 283 284 284 284 283 280 282 283 283 279 283 282 279 282 281 283 283 285 286 286 289 289 288 281 288 284 281 282 284 285 286 285 285 283 283 282 281 282 282 282 282 282 283 281 280 281 279 279
302 302 303 303 303 304 305 305 304 302 300 292 288 287 289 287 285 286 282 280 282 287 286 288 286 284 286 284 286 286 285 285 287 285 287 284 283 284 283 285 284 285 284 284 283 285 285 284 284 285 284 281 286 282 283 284 283 283 283 285 285 285 280 283 281 279 279 282 284 284 285 285 283 282 283 282 281 280 280 279 281 279 280 279 280 278 275
302 302 302 303 303 304 304 305 304 302 300 290 286 286 289 287 288 285 279 277 284 279 282 285 286 282 285 285 286 285 285 287 288 281 287 288 287 286 285 285 283 283 284 283 284 286 286 287 287 287 287 287 286 286 286 285 284 282 282 283 282 281 283 280 278 278 275 281 282 283 283 281 280 277 281 281 281 281 281 281 282 281 280 279 278 277 279
302 302 302 303 303 304 304 305 305 303 297 290 288 286 288 287 285 286 280 279 279 279 278 282 283 285 288 287 286 289 287 287 287 283 282 287 287 288 287 285 283 280 283 285 288 288 289 289 289 288 287 286 285 286 286 287 285 284 284 281 281 281 283 278 280 275 275 279 279 281 278 270 270 279 283 283 280 281 280 279 280 282 281 279 278 281 280
302 302 302 302 303 304 304 305 305 304 300 293 290 288 290 289 283 279 273 278 277 278 279 279 280 284 284 286 287 285 285 286 286 289 285 286 287 288 287 286 283 279 287 289 289 289 290 291 289 289 287 285 285 285 287 285 286 286 284 286 282 280 279 277 276 272 274 276 277 274 269 271 281 283 284 286 284 283 281 281 281 282 283 283 282 282 283
301 302 302 302 303 303 304 305 305 304 303 295 290 289 291 291 286 280 278 278 275 278 275 279 282 283 285 285 285 285 286 286 287 289 289 287 286 287 288 285 284 286 290 288 287 286 285 283 283 283 284 284 284 286 286 285 285 286 284 283 282 279 280 277 274 271 272 270 270 268 266 278 281 282 283 285 284 283 283 281 282 282 281 282 281 282 283
301 301 302 302 303 303 304 305 305 305 305 300 291 291 291 289 287 283 276 274 278 279 279 277 280 281 282 283 283 284 285 285 285 285 284 286 285 285 288 288 288 290 289 287 285 283 281 278 277 279 283 280 283 282 285 283 284 284 284 283 283 281 280 277 274 276 272 268 264 268 277 278 279 278 281 281 281 281 278 274 278 282 281 281 280 281 282
301 301 301 302 302 303 304 304 305 305 305 302 290 290 291 292 287 287 282 280 278 280 279 275 278 280 280 281 281 281 281 282 282 282 284 285 284 287 287 289 290 289 288 286 282 281 279 277 276 274 276 277 272 275 280 281 284 285 284 283 282 282 281 278 278 274 270 270 267 267 266 266 274 278 280 283 283 283 281 278 277 282 280 282 281 279 280
301 301 301 301 302 303 304 304 305 305 305 303 292 288 290 291 288 286 282 275 274 274 279 281 282 281 280 280 281 280 278 275 280 279 280 282 283 286 287 289 290 289 287 284 282 280 279 277 272 270 271 272 277 277 276 281 280 284 284 285 285 283 281 280 280 272 270 268 269 267 267 268 275 279 281 282 281 281 280 276 275 279 279 280 279 279 279
300 301 301 301 302 303 303 304 304 305 305 303 292 288 291 292 290 287 280 280 280 277 278 281 282 281 277 277 280 278 280 276 279 275 275 279 281 282 285 288 287 286 285 280 280 279 277 275 277 274 277 279 275 274 278 278 277 276 282 282 282 281 277 275 273 270 271 268 267 267 264 270 278 279 280 282 280 281 279 270 268 278 280 280 279 279 279
300 301 301 301 302 302 303 304 304 305 304 304 294 289 289 292 291 288 283 278 276 279 282 284 283 279 280 280 279 281 279 278 278 276 277 279 279 280 283 284 283 285 284 278 277 274 274 273 271 271 271 279 280 277 271 278 274 275 276 277 276 273 274 275 272 268 271 272 267 267 269 276 280 280 282 281 283 281 273 268 270 280 280 281 279 279 280
300 301 301 301 301 302 303 304 304 304 304 304 295 286 287 291 293 287 283 281 279 278 282 284 285 283 285 285 283 282 283 282 281 275 275 274 280 283 283 283 284 279 282 274 276 274 271 272 277 276 272 275 278 273 278 272 273 277 277 275 274 272 270 272 271 270 267 265 269 268 267 274 280 280 282 282 282 272 267 273 279 280 281 282 281 281 281
300 300 301 301 301 302 303 303 304 304 304 304 296 286 289 289 291 290 285 280 277 280 281 284 285 284 285 284 282 280 280 280 278 278 275 274 281 281 276 275 279 280 278 277 272 276 269 271 273 276 270 275 277 280 272 275 278 276 277 277 272 274 270 271 270 271 268 266 267 269 269 276 282 282 280 281 273 272 280 281 282 282 282 281 282 281 282
300 300 301 301 301 302 303 303 304 304 304 304 299 286 287 289 292 291 287 281 276 276 280 284 286 285 285 284 285 284 282 282 282 280 281 279 281 275 269 270 277 276 275 274 271 271 273 269 274 273 276 275 276 275 271 270 274 280 279 278 276 279 272 272 271 276 268 267 267 268 273 278 283 280 275 280 282 283 284 283 282 284 283 282 282 283 284
300 300 301 301 301 302 302 303 304 304 304 304 300 287 285 290 292 293 292 286 279 280 282 285 286 285 286 288 287 286 287 287 288 286 284 279 281 279 278 278 280 279 281 277 274 271 277 276 276 270 271 272 276 271 273 264 267 274 277 277 270 279 276 276 273 279 274 272 274 279 281 282 284 285 284 285 287 288 288 287 286 285 286 285 284 285 285
300 300 300 301 301 302 302 303 304 304 304 304 298 287 285 289 291 293 284 282 284 286 285 282 282 285 289 290 289 287 287 288 288 285 281 279 279 279 280 279 280 283 282 280 279 277 277 275 272 277 272 275 272 269 274 270 267 274 270 277 276 281 280 280 280 278 283 284 284 285 285 286 286 288 289 288 288 288 288 288 286 286 286 285 286 286 285
300 300 300 301 301 302 302 303 303 304 304 304 300 287 287 288 290 290 287 283 280 282 281 282 281 278 280 284 287 287 287 289 291 288 287 283 276 276 278 280 283 281 278 281 278 281 276 274 278 276 271 276 274 267 264 269 269 276 272 274 276 277 278 277 276 280 276 272 282 282 283 284 286 286 288 288 288 287 287 286 285 286 285 285 285 284 283
299 300 300 301 301 302 302 303 303 303 303 303 300 294 291 289 289 289 285 283 282 276 276 276 276 286 288 288 288 285 287 289 292 288 286 285 282 279 281 285 285 283 282 282 279 277 273 274 277 270 269 278 276 269 274 269 272 275 267 272 274 277 279 276 276 274 268 270 279 280 281 282 283 283 284 285 285 286 286 285 286 285 285 284 284 283 282
299 299 300 300 301 301 302 303 303 303 303 303 299 288 286 287 289 288 288 285 279 275 277 276 280 285 286 287 287 287 287 287 287 289 289 288 286 285 285 286 285 283 282 280 277 275 274 271 269 272 271 274 277 271 273 276 275 276 273 275 278 277 279 270 275 275 277 278 278 278 279 279 280 280 281 280 282 283 284 283 283 283 283 282 282 281 281
299 299 300 300 301 301 302 303 303 302 303 302 294 289 288 287 287 291 288 287 284 278 275 275 277 282 287 285 288 287 286 286 285 285 287 286 286 285 283 282 282 280 280 278 278 274 274 272 270 275 276 277 277 277 277 275 276 271 272 277 278 277 274 275 275 271 269 271 277 279 273 270 278 279 281 283 282 282 281 280 281 280 280 280 280 280 280
299 299 300 300 301 301 302 303 303 302 303 300 293 291 288 287 289 289 286 286 286 277 276 273 276 283 284 285 287 286 286 288 285 285 284 285 284 284 282 281 281 282 279 278 277 276 272 273 277 273 272 276 276 273 277 276 275 273 275 277 278 277 277 272 265 269 267 274 278 281 277 275 277 281 282 281 282 282 282 281 280 281 280 279 279 279 280
299 299 300 301 301 302 302 303 302 302 303 298 285 286 286 289 288 292 293 289 285 280 276 280 280 279 278 283 288 285 285 286 285 284 283 283 284 283 283 282 280 278 278 276 275 273 274 275 273 276 277 278 274 272 274 268 264 269 273 278 277 279 278 277 277 276 279 278 280 279 279 279 280 280 281 282 281 281 281 281 281 280 280 279 278 279 281
299 300 300 301 301 302 302 302 302 302 302 287 284 279 279 286 285 290 293 294 286 281 278 275 275 280 282 285 285 284 285 287 284 285 284 283 282 282 281 282 283 284 281 278 276 275 275 276 274 276 277 281 275 269 264 269 268 274 277 278 279 280 280 279 279 280 280 280 278 279 278 278 280 280 281 281 283 282 281 281 281 280 280 279 279 279 279
300 300 301 301 302 302 303 303 302 302 300 283 279 276 274 275 285 290 296 292 287 284 278 277 278 278 279 284 283 285 284 286 285 283 284 283 283 283 283 282 281 283 279 278 277 276 275 273 273 277 279 283 274 267 271 270 269 274 278 278 280 280 281 281 279 279 280 280 280 280 280 280 281 281 281 281 282 283 283 283 284 286 282 282 280 279 280
300 300 301 301 302 302 302 303 302 302 294 289 285 282 281 283 286 287 296 295 291 288 279 275 274 274 274 279 283 286 286 285 284 282 282 284 283 282 281 282 281 281 284 275 276 276 276 272 273 276 278 282 276 267 273 267 265 272 277 279 279 279 279 280 281 281 281 281 282 282 281 280 280 281 280 281 281 280 282 282 281 281 286 284 281 281 280
300 300 301 301 302 302 303 303 303 301 295 294 297 300 299 300 300 300 300 290 286 282 278 273 273 275 274 280 283 285 286 282 280 280 281 282 283 280 279 281 279 281 288 280 274 276 273 271 272 273 278 278 271 271 273 266 270 274 277 281 279 279 279 280 281 280 280 280 280 278 276 278 280 280 280 281 280 281 281 281 281 280 279 279 279 278 278
300 300 301 301 302 302 303 303 303 301 294 289 287 289 292 299 297 298 288 287 284 282 277 276 274 274 274 278 281 283 285 283 280 278 278 282 281 280 278 279 280 279 276 278 277 276 276 275 274 272 276 274 271 269 268 273 275 275 276 279 279 279 280 280 280 281 281 280 280 280 279 278 280 281 280 281 280 281 280 280 280 279 279 279 278 278 278
300 300 301 301 301 302 302 299 288 290 286 287 285 285 286 300 301 300 293 285 277 275 275 277 275 271 271 270 266 274 282 283 279 279 278 278 281 281 279 275 274 275 277 280 272 272 272 274 275 273 270 272 272 270 267 273 275 276 278 279 279 279 280 280 281 280 279 280 280 279 280 281 281 280 280 279 280 280 280 280 279 279 278 277 278 278 278
300 300 300 301 301 300 291 294 289 285 283 284 286 295 300 302 300 288 288 288 285 273 270 273 273 273 270 269 269 277 284 282 280 279 278 277 279 279 277 275 273 275 279 273 272 274 272 280 276 270 265 270 267 269 274 276 276 277 278 280 280 281 281 281 279 280 279 279 279 280 280 280 281 280 279 280 279 279 279 279 278 276 276 276 278 278 278
300 300 300 298 291 291 285 285 289 289 287 290 295 300 301 299 293 291 288 287 288 286 279 270 273 274 275 271 270 273 279 274 278 275 275 277 276 273 274 272 270 277 275 269 267 272 274 279 269 268 269 267 267 274 277 277 277 277 278 280 281 280 279 279 280 281 279 279 279 279 279 279 279 279 280 280 279 279 279 279 279 278 277 277 277 278 279
299 297 288 286 284 281 282 283 285 291 299 299 299 290 287 286 280 280 282 279 283 288 276 277 273 274 278 277 274 279 279 274 277 275 271 273 275 274 273 273 274 276 268 267 270 278 271 266 270 269 265 273 275 276 276 277 278 277 279 280 281 281 279 279 281 281 279 279 279 278 279 279 279 279 279 279 278 279 277 279 279 279 278 279 279 279 277
293 286 284 281 282 280 281 285 293 298 295 293 287 284 282 278 278 278 277 278 278 278 276 277 276 278 277 278 276 281 282 277 271 273 273 276 274 270 272 270 273 272 266 265 270 277 270 265 262 264 265 270 275 276 278 278 277 279 280 281 282 281 281 281 282 282 281 280 279 280 281 280 280 280 279 278 278 278 278 277 278 279 280 280 279 279 278
286 285 280 278 279 282 288 292 297 292 289 283 278 278 278 278 277 275 277 275 276 275 276 276 277 278 279 279 277 275 282 280 274 271 269 272 280 273 273 271 271 271 265 263 267 274 270 268 263 264 264 267 273 276 277 279 280 280 280 280 280 280 281 282 281 280 280 280 279 279 280 280 281 281 280 279 279 278 278 277 279 279 279 280 280 277 277
286 285 281 279 283 285 289 293 289 281 280 277 276 275 274 275 277 277 276 271 270 273 277 277 278 279 280 278 279 275 281 282 278 276 274 273 276 277 270 269 272 270 264 263 268 269 265 265 261 264 267 269 275 277 278 279 280 281 280 280 280 280 280 280 281 280 280 280 280 279 279 279 280 279 280 280 279 278 277 277 279 279 278 279 279 280 280
287 287 289 292 293 294 292 286 279 280 278 278 274 272 273 274 275 273 273 272 272 269 278 279 275 277 278 279 279 277 279 282 276 273 272 272 277 273 269 269 269 265 264 264 268 265 266 266 261 260 263 273 275 276 277 279 280 281 281 280 281 280 279 280 281 279 280 281 280 280 279 279 279 279 280 279 279 279 279 279 280 278 279 279 280 280 281
297 297 296 291 289 285 282 279 279 276 272 271 269 270 271 271 273 272 273 273 273 277 278 282 281 281 283 281 281 282 280 283 281 276 273 271 274 272 267 265 265 266 266 268 266 262 265 263 260 268 273 275 276 277 277 279 279 279 280 280 280 280 281 281 281 282 281 280 280 281 280 279 279 280 279 279 279 279 277 278 279 278 278 278 279 280 281
291 291 287 282 282 279 279 275 280 278 274 270 268 268 268 268 270 269 271 272 275 277 278 281 279 279 275 279 282 281 279 282 281 276 275 275 272 270 267 267 266 267 271 264 263 267 263 259 265 272 275 276 278 277 277 279 279 279 280 280 279 279 279 280 280 281 281 280 280 280 280 280 279 279 279 278 279 280 281 279 278 278 277 277 278 278 278
283 278 276 273 274 276 276 270 275 272 269 271 271 267 268 268 268 266 273 274 279 280 281 280 280 280 279 282 282 281 280 277 280 277 275 276 272 268 268 266 264 266 266 265 260 260 263 265 269 273 275 276 278 277 277 278 279 280 279 279 280 280 280 280 280 280 280 281 281 280 280 280 280 280 279 279 278 279 279 279 279 278 277 277 277 277 278
277 277 276 272 271 274 271 268 270 270 272 273 272 274 274 274 276 277 278 280 280 280 281 281 280 281 280 281 279 279 280 278 277 276 275 272 270 267 267 268 269 268 262 257 260 263 264 267 271 274 276 277 277 277 276 277 278 278 281 282 282 281 281 281 280 280 281 281 280 281 281 279 280 280 281 280 279 278 278 279 278 278 278 278 278 278 278
278 279 275 272 269 271 273 269 271 271 277 277 276 276 277 278 278 279 280 281 280 281 281 280 280 280 279 279 280 279 277 276 275 276 274 271 270 272 274 270 267 262 262 261 258 255 260 270 271 273 276 276 275 275 277 277 278 279 281 281 280 282 281 281 280 280 281 280 280 280 280 281 281 281 280 280 280 279 279 278 278 277 278 279 278 277 277
278 278 272 270 269 270 272 272 277 277 277 279 278 277 278 278 279 279 280 280 281 281 280 281 278 276 277 278 279 274 272 274 273 273 275 273 275 271 266 265 262 260 261 262 262 262 268 273 274 275 276 277 275 277 278 277 278 279 280 281 281 281 281 281 281 281 280 280 281 281 281 280 281 280 280 280 279 280 280 278 278 277 278 277 278 277 277
280 276 273 269 270 273 272 272 278 277 277 276 276 277 278 279 279 279 281 279 280 281 281 281 276 277 274 275 275 275 276 277 273 274 278 274 272 269 266 262 258 263 265 265 270 271 271 274 276 275 276 277 276 278 278 278 278 279 280 281 282 282 281 281 282 282 282 281 281 281 281 281 281 280 279 279 279 281 280 278 278 278 278 278 278 277 277
280 277 278 274 273 272 274 276 278 275 276 277 279 278 277 277 277 280 280 281 281 281 281 284 282 280 278 278 273 274 273 274 275 276 272 270 270 269 265 264 263 267 263 265 269 271 274 275 276 276 277 277 278 279 279 279 278 279 280 281 281 281 281 282 282 282 282 282 282 282 282 281 280 281 281 282 281 280 279 277 278 278 278 277 277 277 277
284 280 277 275 276 272 275 272 270 271 273 276 278 278 277 277 278 279 279 282 282 279 279 278 279 278 277 275 271 270 272 276 275 272 269 268 267 267 266 266 268 270 274 276 274 273 274 276 275 276 276 277 279 280 280 281 280 280 279 278 278 279 280 281 282 283 282 283 283 282 281 282 283 283 283 281 281 280 279 278 278 278 278 277 277 277 277
281 276 275 277 279 279 279 277 275 277 279 280 279 279 279 279 278 280 280 282 279 276 272 273 277 276 275 274 276 276 278 276 273 270 269 270 270 268 266 270 277 278 278 278 279 278 277 276 276 277 277 279 280 281 280 280 280 280 279 280 279 280 280 281 282 282 282 282 282 283 283 283 282 281 281 280 279 279 279 279 278 278 277 277 277 277 277
Wind_Speed
27 26 27 28 28 30 30 30 28 26 24 8 6 3 4 5 0 4 6 6 1 4 1 2 1 0 2 4 2 1 1 2 3 0 1 1 1 0 1 4 3 3 3 1 1 2 1 1 2 1 1 1 2 3 4 2 5 5 1 2 0 4 2 4 1 2 4 4 3 1 2 1 6 6 3 1 1 0 3 1 5 7 2 1 1 1 2
27 26 26 28 28 31 30 30 29 25 21 6 4 3 2 0 1 6 8 7 4 8 1 2 4 4 5 2 2 2 2 0 1 1 2 1 3 0 1 3 1 1 2 1 1 1 2 2 1 0 0 1 4 4 4 1 1 2 3 2 3 1 1 7 3 2 4 3 3 3 4 5 3 2 2 1 3 4 2 4 1 6 5 5 7 5 2
27 27 27 27 28 29 31 31 28 25 20 7 1 1 0 0 1 1 6 11 10 5 1 0 1 1 2 2 5 7 3 2 2 1 2 1 0 0 1 1 3 1 1 1 1 3 1 1 3 1 1 2 3 7 8 6 3 1 1 4 3 6 1 2 5 7 5 4 2 2 1 1 0 0 3 3 4 2 0 1 1 3 2 3 3 2 3
27 26 26 27 27 30 30 29 28 26 21 9 3 1 2 3 1 6 6 6 6 5 1 1 1 1 3 4 2 2 3 4 6 4 3 2 1 2 2 2 1 3 2 3 4 6 5 3 0 4 3 3 3 3 7 7 4 5 11 6 5 4 2 3 4 6 7 5 4 2 2 2 3 0 3 1 2 2 3 5 4 4 3 1 2 5 4
26 26 26 26 28 29 30 29 29 29 25 14 3 4 3 2 5 2 5 6 7 1 5 9 6 4 2 3 3 5 3 3 1 6 2 5 1 2 6 4 3 3 3 1 3 3 2 6 5 4 2 3 2 8 4 6 11 5 3 4 5 4 4 1 8 7 0 2 1 1 2 4 3 2 3 3 5 2 4 1 2 1 9 1 1 1 5
26 26 25 26 26 27 30 28 29 29 27 19 3 5 4 5 1 1 1 2 4 6 8 11 10 14 9 4 3 4 7 9 4 5 3 0 4 1 3 10 6 1 1 1 3 7 3 4 2 5 2 2 7 4 7 5 8 4 2 2 4 4 3 2 4 4 5 5 5 3 6 6 3 3 3 5 7 9 4 0 0 1 2 7 2 5 6
26 26 25 26 26 25 27 28 28 28 26 16 4 6 3 4 0 1 2 2 3 4 2 8 9 12 10 0 8 9 10 9 4 2 4 5 7 5 3 6 10 8 3 3 3 4 2 3 2 2 4 3 4 4 5 2 8 6 2 4 1 6 1 1 4 7 8 9 7 5 9 3 5 8 7 3 10 5 5 4 4 1 4 6 11 12 7
26 26 25 25 25 25 26 29 27 27 25 9 11 6 3 4 3 3 5 4 3 3 1 3 5 10 10 4 10 7 9 7 8 8 8 3 5 5 5 4 5 8 9 6 5 1 2 1 3 1 1 3 4 1 1 4 6 5 2 0 1 5 2 5 4 4 1 1 2 4 7 4 3 3 4 4 6 10 6 4 3 9 7 4 11 12 7
25 25 25 24 24 25 25 27 27 25 20 8 7 2 3 1 1 0 1 5 5 3 3 2 5 4 7 6 7 7 13 7 6 7 6 7 3 5 4 4 4 5 8 9 5 0 1 3 4 2 0 1 1 2 2 2 4 6 4 3 3 5 3 2 3 6 1 1 0 2 3 2 1 0 1 2 4 6 2 3 1 2 7 5 7 8 4
24 25 24 24 24 24 24 25 25 23 15 5 2 5 2 1 0 2 1 4 5 4 4 3 1 5 1 2 4 4 10 8 6 2 5 7 7 5 4 2 2 4 10 9 6 7 3 5 7 5 5 4 3 2 3 2 2 3 2 0 2 1 7 5 4 7 3 1 2 6 8 7 3 2 2 1 3 4 4 2 4 2 2 6 8 5 2
24 24 24 23 24 24 24 24 25 21 10 7 5 3 3 3 2 3 4 6 6 6 3 6 5 2 1 2 1 4 5 9 9 4 2 5 9 7 4 7 3 2 4 4 6 6 9 6 5 2 2 3 3 2 3 3 1 2 2 2 1 1 6 3 1 5 3 2 3 1 3 3 4 2 3 1 3 4 9 3 3 4 2 1 3 6 3
23 24 23 23 23 23 24 23 24 22 11 1 2 1 1 1 3 2 3 6 0 5 5 4 3 2 5 7 3 4 5 7 5 4 2 2 3 6 9 8 4 3 2 5 7 10 5 1 0 0 1 2 0 2 4 5 6 4 2 0 1 3 4 2 1 6 5 2 2 3 2 5 2 6 2 2 5 8 14 7 5 5 5 7 9 7 6
22 23 23 22 23 23 23 23 23 24 18 4 3 5 4 0 2 3 5 6 3 5 4 2 2 1 2 3 4 4 3 3 2 4 1 3 4 5 3 2 3 4 7 11 10 4 2 1 2 1 4 6 6 7 10 10 8 6 4 3 3 2 6 3 3 3 3 3 2 3 4 2 3 3 4 4 4 2 10 9 5 5 3 1 5 3 3
22 22 23 22 22 23 22 22 22 23 22 10 4 4 4 2 2 3 1 4 3 2 1 3 5 7 7 7 4 4 3 8 5 1 3 2 2 3 2 2 4 8 8 4 2 2 1 3 1 2 2 5 4 5 3 1 4 9 9 7 2 7 4 4 3 1 5 2 3 0 3 1 3 2 1 0 0 1 2 6 0 2 2 2 4 3 1
21 22 22 22 22 22 22 22 21 22 21 13 1 2 6 6 2 4 2 6 4 1 4 4 6 5 4 3 4 5 6 4 7 5 3 2 1 1 2 5 8 8 5 0 3 4 1 2 1 1 2 2 1 3 3 2 2 3 5 5 5 3 2 3 6 1 6 7 4 3 4 1 6 5 1 1 0 0 3 6 0 2 3 1 1 3 1
20 21 22 22 21 21 22 22 21 21 21 15 4 3 4 4 1 3 3 2 4 5 7 2 2 2 1 2 2 4 2 4 4 3 5 4 3 7 2 5 7 5 3 6 2 3 2 0 2 3 2 1 1 1 1 0 2 2 4 7 7 6 7 5 4 4 4 4 6 4 7 7 5 3 2 3 2 2 3 4 1 0 1 2 3 4 2
20 21 21 22 21 21 21 22 21 21 20 16 5 3 6 6 3 1 2 4 6 3 3 2 1 2 3 4 5 5 3 2 3 3 4 5 5 5 10 9 4 6 8 4 6 4 5 4 2 2 1 0 0 1 1 1 2 5 10 7 10 9 5 4 3 3 1 6 4 3 3 1 0 2 3 3 1 4 3 2 5 2 1 0 2 4 2
20 20 21 21 21 20 21 21 21 21 20 19 6 1 3 5 3 1 5 5 5 3 4 1 3 5 6 0 1 2 1 2 3 1 0 3 2 4 6 7 10 5 4 4 3 4 3 3 3 2 1 1 0 1 1 1 2 1 3 2 3 5 3 6 1 3 2 5 0 2 2 3 2 3 4 4 2 3 5 8 3 1 0 0 2 1 1
19 20 21 21 20 20 20 20 20 21 20 19 8 2 3 4 6 4 7 4 5 3 5 2 1 2 1 1 1 0 0 0 0 2 4 5 2 2 2 3 1 4 7 2 5 3 2 1 1 1 1 4 3 0 1 3 1 2 1 2 4 3 2 1 3 5 1 2 6 3 1 2 1 4 3 3 3 4 6 2 2 2 0 0 0 1 0
19 19 20 21 20 19 19 20 20 20 20 20 8 2 4 3 5 4 3 4 1 3 3 3 2 4 1 3 5 6 3 5 1 4 1 1 4 5 1 3 3 3 6 3 3 0 3 1 1 0 2 1 1 1 3 1 1 1 0 0 2 1 2 1 1 0 2 3 3 2 1 1 4 4 2 4 3 1 3 3 0 1 0 1 1 1 2
18 18 19 20 20 19 19 19 20 20 20 20 10 3 5 3 5 4 2 2 4 4 4 2 1 1 0 1 1 4 4 5 3 3 1 3 2 1 3 1 4 2 2 2 3 2 1 1 2 0 1 1 3 2 2 1 2 1 1 1 2 0 2 0 0 1 3 1 2 2 0 3 5 2 3 1 2 6 3 4 2 1 1 0 1 1 1
17 17 18 19 19 19 19 19 19 19 19 19 11 2 4 6 4 3 1 3 4 3 1 1 1 2 2 1 2 3 2 0 0 2 1 3 4 3 3 1 0 0 0 1 3 2 2 0 0 2 2 2 3 2 1 2 1 3 2 2 2 4 2 1 3 2 1 2 3 3 0 2 4 6 6 3 3 3 2 4 3 2 0 1 1 1 3
17 17 18 18 18 19 18 18 18 18 19 18 9 4 2 6 8 6 1 4 2 1 3 3 1 2 3 1 1 3 2 1 3 2 3 3 2 2 2 2 3 0 0 1 1 3 1 1 1 1 2 0 1 1 4 2 2 1 1 2 3 2 3 3 6 3 5 7 6 3 1 2 6 6 4 5 3 3 3 3 2 1 0 2 0 1 1
16 17 17 17 17 18 18 18 18 17 18 17 7 2 3 3 5 6 5 5 3 1 3 5 5 3 2 4 5 6 2 1 1 0 0 2 2 1 2 1 1 1 1 1 2 0 1 2 0 1 1 1 2 2 2 3 1 0 2 1 2 1 0 2 5 4 3 1 2 2 4 3 2 2 2 1 2 1 1 3 2 1 2 1 1 0 1
16 17 17 16 17 17 17 17 17 17 17 16 11 1 1 3 4 5 2 1 3 3 1 4 1 2 3 4 3 1 1 0 0 3 4 5 5 4 2 0 1 1 2 1 1 3 3 1 1 1 2 1 2 1 1 3 1 1 1 1 1 2 1 7 2 3 2 2 5 3 1 0 1 0 2 2 1 2 2 1 0 1 3 2 1 3 3
16 16 16 16 16 16 16 16 17 16 16 15 7 3 3 2 5 1 5 4 3 2 2 1 2 3 3 3 3 2 3 3 3 5 4 2 1 2 4 1 1 3 2 2 2 2 1 2 2 1 3 1 1 1 0 0 1 0 3 1 1 1 1 2 2 3 1 3 3 2 3 3 2 2 1 1 1 0 1 3 3 3 4 4 4 3 3
15 16 16 15 16 16 16 16 16 16 16 13 4 3 2 1 3 6 3 1 1 1 4 0 3 6 4 3 2 3 2 3 2 4 4 4 4 3 4 3 2 3 5 3 3 4 3 2 2 1 1 0 1 1 0 0 1 1 1 1 1 2 3 1 4 5 1 5 5 5 3 2 4 3 3 2 1 1 1 1 2 3 4 3 4 2 0
15 15 16 15 16 16 15 15 15 15 15 10 3 3 1 3 3 1 2 3 3 2 1 1 2 4 2 0 3 4 2 3 3 4 4 4 5 5 5 3 2 2 2 3 4 4 2 4 2 1 0 1 2 2 1 0 2 3 3 2 0 2 3 4 4 7 2 4 6 7 4 1 4 6 4 3 0 1 0 0 1 0 1 2 3 1 2
14 15 15 15 15 16 15 14 14 13 14 9 2 1 2 0 1 3 3 1 5 4 2 1 2 3 2 2 6 5 4 3 3 3 3 3 4 4 5 4 2 3 3 3 2 2 1 1 1 0 1 1 2 1 3 1 2 0 1 2 0 1 2 2 4 5 1 2 6 6 2 3 2 3 3 2 0 2 1 1 1 2 3 2 1 1 0
14 15 15 15 16 15 15 13 13 11 11 4 2 3 3 1 1 3 3 3 2 2 1 1 2 1 2 2 2 2 2 3 3 3 4 3 3 3 1 3 2 1 2 1 1 1 1 0 1 1 1 1 1 1 2 1 1 1 3 3 3 0 1 2 4 2 1 2 4 5 3 1 1 3 1 0 1 4 4 4 4 2 2 3 3 3 3
15 16 16 16 16 15 14 13 12 9 6 3 3 2 2 1 1 0 3 3 0 2 2 1 1 2 2 0 0 2 4 3 3 3 2 1 1 1 0 2 1 0 1 1 1 0 0 1 1 1 2 1 3 1 3 2 0 2 2 3 3 1 1 1 2 1 1 5 4 3 3 3 3 4 2 0 2 3 1 1 3 4 4 3 4 2 1
17 17 17 17 16 15 14 12 10 5 2 1 2 1 1 2 3 2 2 1 0 2 1 1 1 3 1 3 1 1 1 1 1 2 1 1 0 2 3 3 0 1 1 1 0 1 0 1 0 1 1 1 4 2 2 3 2 3 3 5 3 2 1 0 1 1 2 4 6 4 2 1 2 5 3 4 4 2 4 4 3 3 3 2 0 1 2
17 17 18 17 17 16 14 12 6 3 2 4 5 4 5 6 9 7 2 0 3 1 2 3 1 0 0 1 4 2 1 1 3 5 1 2 1 1 1 3 2 2 3 2 1 0 1 1 0 1 0 1 1 1 2 2 5 4 5 5 4 3 2 1 0 1 2 2 2 3 2 4 5 4 3 5 3 3 3 3 1 1 2 0 1 3 3
18 18 19 17 16 16 13 8 3 1 4 2 2 1 2 5 5 3 2 4 2 0 1 1 0 1 2 4 2 2 2 1 2 1 1 2 0 1 1 1 2 0 2 2 1 1 0 0 1 1 1 2 1 1 1 4 5 3 2 1 0 1 1 1 0 1 1 2 0 0 2 2 3 4 4 4 2 0 1 1 2 1 1 0 1 3 2
18 18 19 16 15 12 5 2 2 2 1 0 0 3 1 10 5 2 2 1 1 1 2 1 1 1 2 3 2 3 1 0 1 0 0 3 1 1 0 1 2 2 2 1 2 1 0 1 3 1 2 2 1 1 3 5 5 1 1 2 1 4 3 1 2 3 1 0 2 3 4 6 7 5 5 4 3 2 2 1 1 1 1 2 3 3 2
18 18 17 15 8 2 1 3 4 2 2 0 1 4 10 6 4 3 3 2 1 2 2 0 1 1 2 0 0 1 0 0 1 1 1 1 2 2 2 1 0 1 0 1 1 1 0 0 0 1 1 1 4 4 6 5 4 4 6 6 7 9 6 7 4 3 2 3 3 3 4 3 6 6 4 3 2 1 1 2 0 1 1 3 4 3 3
18 16 12 4 2 1 2 0 1 2 1 3 10 12 5 4 1 1 3 1 1 1 1 2 1 3 4 2 1 4 2 1 3 2 2 2 1 2 2 2 0 2 1 2 1 0 2 1 2 1 1 2 4 6 6 4 5 5 5 6 7 4 1 0 3 6 5 4 5 1 2 4 3 2 3 3 3 1 1 2 4 3 3 4 4 3 4
15 7 3 2 1 1 1 1 0 5 11 12 7 1 2 4 0 1 2 2 2 2 2 2 1 1 0 1 1 2 1 1 2 1 2 0 0 1 0 1 2 0 1 1 2 1 1 3 0 1 3 6 5 5 6 5 6 5 3 4 6 6 3 4 6 5 3 1 0 1 1 1 3 3 4 4 3 4 5 4 3 3 4 4 4 4 4
6 3 4 3 1 0 1 2 5 14 8 2 1 0 1 1 1 1 0 0 1 1 1 1 2 1 3 1 4 2 0 1 1 3 1 1 2 3 1 1 2 1 1 2 2 2 1 2 2 2 3 4 3 2 2 4 3 3 4 4 5 6 5 5 5 6 7 6 5 6 8 7 7 6 4 3 3 4 4 3 3 3 4 4 4 4 2
5 6 2 2 1 1 2 5 11 5 1 0 2 2 0 1 1 1 0 0 1 1 0 1 2 3 4 4 3 2 0 1 1 2 1 2 0 1 1 1 1 1 1 0 4 3 1 1 1 1 4 3 3 3 2 2 1 1 2 4 4 5 5 6 5 3 3 3 2 3 4 4 5 5 5 5 4 3 4 3 4 4 4 5 4 3 4
2 1 2 1 3 2 4 6 4 1 1 1 1 1 1 1 0 0 0 1 0 1 1 0 1 0 0 1 2 1 2 2 1 2 2 0 2 1 1 0 1 1 1 1 3 1 1 1 0 1 4 2 4 4 3 1 0 1 1 2 4 5 4 4 3 3 3 2 1 1 3 3 4 4 4 5 4 4 4 4 4 4 4 4 4 5 3
2 2 2 2 3 4 4 1 2 1 1 0 2 0 0 1 1 1 0 1 1 1 1 0 1 0 2 1 2 2 0 0 2 1 1 0 1 1 1 1 2 1 1 2 1 2 2 0 1 3 4 6 5 3 2 2 1 2 3 2 3 4 4 4 4 3 4 4 4 3 3 4 4 3 4 4 4 4 4 4 5 4 4 5 3 3 4
7 5 2 1 1 1 0 1 1 1 1 2 2 1 2 2 0 0 2 1 1 1 2 0 1 1 0 1 0 0 0 0 0 1 1 1 1 2 1 1 1 0 2 1 1 1 1 1 2 6 7 6 4 3 3 4 3 2 2 2 3 3 4 5 5 4 4 4 4 4 4 4 4 4 3 3 2 1 3 4 4 4 4 3 3 3 3
1 0 1 1 0 1 1 1 0 1 1 1 2 1 1 1 2 2 1 2 2 1 1 2 3 2 2 1 1 1 0 1 3 1 0 0 1 0 0 0 2 3 0 1 1 1 3 2 6 5 5 5 5 4 3 4 4 3 2 3 2 2 2 1 0 1 1 1 1 1 1 3 4 1 2 2 3 4 4 5 4 4 4 2 3 3 3
0 2 2 1 1 1 1 2 2 2 1 1 1 1 2 1 2 2 1 2 1 4 4 1 0 1 1 1 1 1 1 0 1 1 1 0 1 0 1 2 1 2 1 2 1 2 1 2 3 4 5 5 6 5 3 3 4 6 4 2 3 4 3 4 4 3 3 4 4 3 3 4 3 4 3 3 3 3 3 5 5 3 3 3 3 3 3
3 1 1 3 3 2 1 0 0 1 1 1 0 3 2 3 2 3 5 1 2 5 7 5 2 1 0 0 1 1 0 2 1 1 1 1 1 2 2 0 1 0 1 1 1 2 4 5 4 5 4 5 5 5 4 3 3 3 4 5 7 6 6 5 4 4 5 4 4 4 4 3 4 4 5 4 2 3 4 5 4 4 3 2 4 4 2
1 1 2 1 2 1 1 1 0 1 1 1 2 4 2 3 3 5 3 1 3 4 4 2 1 1 0 1 0 1 1 1 1 1 1 1 2 1 1 1 1 0 1 1 3 4 4 6 6 6 6 5 5 4 4 3 3 4 5 4 4 6 5 5 5 5 6 3 3 4 4 4 4 4 2 3 4 3 3 4 4 4 4 5 5 2 1
1 1 1 1 2 0 1 1 1 2 1 2 1 1 2 1 2 5 3 2 4 1 3 1 1 2 1 1 1 1 1 0 0 2 1 1 1 1 1 1 1 2 2 2 4 5 4 4 4 4 5 4 3 4 3 2 4 6 5 5 5 5 5 5 5 6 5 5 6 5 5 5 4 4 4 5 4 6 4 3 3 4 4 3 1 1 1
1 1 0 1 1 1 1 1 1 2 1 2 1 1 1 1 4 5 6 2 2 5 2 1 1 1 1 0 1 0 1 0 1 2 1 1 1 3 2 2 0 1 4 6 6 4 5 6 4 3 5 4 4 4 3 3 4 5 7 8 8 8 5 6 7 7 5 5 5 5 5 6 4 4 4 2 3 6 3 2 4 4 4 4 4 3 2
1 1 1 1 1 1 1 0 1 2 2 2 0 1 1 2 4 6 1 1 2 3 1 0 0 1 1 0 1 0 1 1 2 0 1 2 2 1 2 1 4 4 2 2 4 6 7 5 3 3 5 4 5 4 4 4 4 5 6 5 4 3 5 7 7 6 6 6 7 8 6 4 4 5 5 7 6 2 1 2 4 5 4 4 4 4 3
0 1 2 2 2 2 2 0 1 2 3 3 2 3 3 2 2 4 1 0 3 3 3 1 1 1 0 1 2 0 2 1 1 3 4 3 2 3 3 3 4 6 7 5 6 5 5 5 3 4 5 5 5 5 5 5 4 5 4 3 3 4 4 4 6 6 6 7 6 5 5 7 8 8 7 3 1 1 2 2 3 4 5 5 4 4 4
1 1 2 2 2 3 3 0 0 5 6 5 3 4 3 2 3 4 1 0 1 0 3 1 1 0 1 2 3 2 1 1 1 1 1 3 2 3 4 6 5 5 6 4 5 5 6 6 5 6 6 5 6 6 5 4 4 4 4 5 5 5 5 5 5 6 6 4 5 6 7 7 5 3 2 3 3 2 4 6 4 5 5 5 5 5 5
Wind_Direction
356 353 349 346 343 346 346 345 344 346 348 3 350 335 16 40 287 263 332 346 248 57 69 299 30 192 245 299 304 283 343 184 234 258 305 285 202 276 191 218 190 256 209 194 165 141 148 163 212 217 106 212 190 231 5 323 36 73 28 57 291 105 75 66 337 326 306 308 292 333 11 62 53 34 71 75 71 215 173 175 180 134 176 71 25 87 229
357 352 349 346 344 346 347 345 344 344 356 329 303 50 94 264 302 327 350 4 83 74 91 352 321 313 322 18 299 309 238 180 341 152 8 82 339 201 282 351 96 280 50 70 109 307 126 326 72 258 192 104 340 47 22 91 70 59 198 135 245 101 312 112 97 19 337 343 348 357 329 54 66 82 11 84 98 70 152 112 34 103 207 168 127 186 232
357 353 349 346 345 347 348 347 342 344 349 356 140 47 204 339 283 305 316 5 39 77 191 153 264 302 357 327 15 355 348 7 300 174 66 356 41 342 289 195 306 20 55 75 65 34 99 126 2 130 7 325 330 339 45 83 69 25 271 71 114 81 134 87 134 153 161 189 243 245 234 121 298 87 49 40 82 99 61 147 20 123 229 115 134 197 252
358 354 351 348 347 350 350 347 345 344 350 5 94 187 53 22 52 319 339 17 24 47 276 152 206 19 6 39 349 39 327 325 7 68 82 43 53 70 289 317 61 50 39 37 33 20 12 89 310 45 340 327 345 350 331 69 96 47 56 41 58 119 81 77 136 156 187 202 213 257 115 39 71 263 62 15 53 34 96 98 85 186 183 134 232 165 129
358 356 352 350 350 351 352 350 347 347 346 2 124 31 93 124 56 344 339 330 43 232 359 28 33 5 275 76 347 355 332 274 338 26 90 13 48 26 48 359 34 338 52 41 58 10 349 12 79 8 322 276 264 308 5 44 12 2 87 22 81 69 68 79 100 66 266 242 240 309 99 112 9 25 335 24 45 26 80 78 240 150 113 258 325 229 99
359 357 354 353 351 351 356 354 351 350 345 349 85 41 4 60 291 125 241 80 321 345 9 0 20 21 33 41 350 11 17 31 23 325 28 197 35 93 352 28 32 309 231 103 67 341 28 30 25 321 341 336 340 22 10 63 339 4 70 3 109 129 100 317 67 26 28 24 28 31 73 58 72 34 356 36 19 47 74 133 176 76 126 193 179 81 83
0 359 357 355 353 351 357 359 355 351 347 345 70 71 331 107 252 228 335 82 14 44 280 353 10 32 16 138 12 20 20 29 6 355 314 23 4 39 84 4 2 11 19 101 100 9 75 15 338 54 326 29 345 17 337 332 18 27 56 33 128 90 31 158 100 73 27 17 18 18 74 64 47 20 9 1 80 61 80 60 7 79 111 131 112 89 83
1 1 359 357 354 353 357 2 360 353 346 334 65 50 55 10 23 331 358 92 66 360 46 19 6 48 345 45 357 4 4 21 8 23 25 13 352 7 77 7 0 21 38 54 82 24 94 102 46 310 70 330 42 54 144 286 324 27 56 12 336 101 217 166 124 91 74 9 352 32 53 54 57 27 23 9 75 77 50 88 71 80 67 94 103 91 74
2 2 360 358 355 354 357 3 4 359 350 40 48 51 49 243 166 208 54 31 343 347 21 51 52 55 352 41 350 10 360 360 347 61 51 59 17 348 341 332 325 15 40 55 75 4 245 242 244 228 143 71 288 64 273 60 326 349 4 26 324 67 154 55 94 99 254 257 176 116 117 97 107 94 330 56 59 81 336 58 318 114 155 160 101 91 119
3 3 2 360 357 355 357 3 8 6 357 95 42 36 320 47 308 66 109 73 342 24 310 8 40 37 303 351 343 4 341 354 6 55 10 34 47 4 341 314 84 16 26 19 345 321 267 247 244 232 228 239 271 288 262 321 315 324 23 208 58 47 136 146 132 117 205 131 142 137 121 96 68 254 291 57 78 128 113 42 41 50 119 126 146 172 201
4 4 3 1 358 356 357 1 7 13 20 46 44 8 347 23 326 348 51 81 351 10 6 23 53 11 345 317 324 3 13 9 10 63 340 355 1 358 21 35 76 78 42 332 317 291 275 258 263 197 196 215 235 253 271 322 293 247 329 39 70 67 112 133 148 119 179 107 177 331 92 146 225 273 293 165 160 180 110 53 17 8 74 147 166 132 136
4 4 4 2 360 357 357 359 6 14 31 118 151 72 1 124 90 92 80 84 23 336 52 56 357 325 18 337 3 13 354 354 1 325 61 342 321 350 19 23 61 29 329 325 330 310 274 233 52 149 134 11 54 44 54 54 11 360 344 312 88 85 84 101 131 99 160 135 60 66 202 234 323 306 252 150 105 107 100 98 57 32 47 84 89 94 105
3 5 4 2 360 358 358 358 2 10 15 29 67 30 323 89 139 109 110 105 46 351 19 41 347 304 321 350 25 355 329 312 324 338 69 34 346 11 25 47 359 274 330 318 328 4 58 301 337 10 329 353 3 50 44 29 15 360 26 40 111 110 107 166 44 98 69 77 100 147 240 287 331 20 57 85 127 102 86 61 18 26 29 70 92 118 136
3 4 4 3 0 359 358 358 359 6 10 15 38 15 329 12 66 58 84 96 22 306 212 305 352 5 7 15 360 318 313 12 337 7 33 346 355 339 308 9 304 288 300 303 21 58 358 36 34 22 323 16 12 357 317 54 45 24 11 354 18 135 105 97 105 352 150 158 106 195 1 17 75 89 212 123 32 27 106 137 218 341 324 61 123 99 95
3 3 4 2 1 359 359 358 358 2 6 9 97 347 22 21 77 123 197 89 130 24 40 44 310 311 334 346 14 13 29 337 10 342 303 289 3 302 261 308 317 316 311 123 4 39 107 95 46 58 339 78 195 241 339 346 314 56 31 19 49 21 156 231 130 239 117 124 70 16 26 252 240 234 281 352 293 264 175 104 47 332 339 345 128 106 67
2 4 3 2 0 359 359 358 357 359 3 3 66 15 42 10 80 97 114 135 123 35 335 310 234 248 312 334 344 57 346 355 334 299 347 346 306 332 318 331 320 324 19 68 64 78 29 117 229 104 200 199 296 74 261 356 349 313 41 34 50 34 72 100 137 142 75 73 131 187 166 242 204 215 281 301 307 158 130 67 220 304 348 6 112 99 60
3 3 4 3 1 359 358 358 357 358 0 9 353 8 27 4 21 62 76 39 70 121 239 272 113 108 85 352 12 17 10 27 335 29 348 340 318 297 307 338 307 27 24 78 12 50 31 38 68 139 9 227 74 147 337 56 17 339 339 7 27 36 2 17 68 92 148 146 122 201 192 144 103 252 280 303 318 156 63 97 260 249 343 58 100 112 115
5 5 5 5 3 360 358 358 358 358 360 2 24 36 339 356 14 123 59 94 103 42 338 340 47 32 38 241 31 292 62 10 25 51 170 277 331 359 329 349 354 337 54 81 7 62 49 61 56 58 71 346 259 45 107 41 47 351 332 355 7 359 350 43 147 134 75 97 120 11 320 282 278 313 301 327 173 94 125 202 228 227 291 20 149 127 149
6 7 7 6 4 2 359 359 358 358 360 3 357 63 350 9 2 71 116 74 77 79 300 294 155 107 189 78 126 151 124 115 218 81 326 3 1 309 257 254 47 349 5 90 54 63 84 321 17 64 84 326 26 124 328 44 290 322 30 24 7 11 69 335 66 39 83 168 109 185 221 240 8 291 279 275 105 160 217 232 227 164 150 295 149 44 181
4 5 7 6 5 2 1 359 359 359 359 3 24 86 265 335 14 33 85 105 93 84 324 348 9 47 316 82 40 32 2 18 42 105 91 329 290 1 34 5 330 52 356 50 45 292 94 33 252 9 28 352 345 132 57 25 33 32 18 290 114 264 86 355 97 141 47 40 80 74 155 250 18 302 341 20 115 223 172 156 120 178 153 59 356 31 324
0 1 3 5 5 4 2 0 359 359 359 2 14 42 349 334 21 22 77 129 115 76 346 309 33 8 81 74 170 141 121 71 25 28 278 222 267 81 84 210 269 10 359 56 72 341 75 337 345 40 215 116 283 49 155 176 349 341 64 109 115 187 87 73 322 182 142 83 119 193 242 276 307 136 139 295 111 145 153 121 85 96 147 180 27 348 327
359 358 358 0 3 4 3 1 359 358 359 1 8 61 30 326 347 6 23 92 96 112 169 273 239 254 254 242 181 164 127 130 227 166 77 12 353 86 156 111 286 133 308 119 32 8 4 223 35 52 20 320 8 95 126 71 49 284 336 56 35 335 154 183 159 355 108 181 169 159 231 281 335 57 89 88 71 92 140 101 127 121 34 122 89 348 351
357 357 356 356 357 0 1 1 360 358 357 360 16 72 30 323 340 343 71 50 357 7 358 8 355 332 343 323 195 194 216 175 112 61 125 109 7 12 52 37 349 237 335 104 128 147 191 106 76 150 72 31 134 36 18 123 176 355 56 335 150 23 91 74 79 67 93 48 55 78 40 31 52 40 55 85 66 19 71 99 83 274 207 151 108 320 284
355 354 354 354 352 354 357 359 359 357 356 358 23 44 339 334 318 354 16 67 97 80 343 4 61 341 276 300 312 337 18 19 7 44 168 125 109 315 328 268 215 23 12 300 181 89 211 107 204 132 105 249 80 64 102 30 17 189 73 12 332 247 266 57 103 161 68 162 214 221 159 161 164 129 89 76 90 148 166 143 161 172 173 205 335 360 34
351 350 349 350 348 348 351 354 357 356 355 359 358 35 169 4 2 17 79 54 359 82 128 313 352 227 275 274 248 308 300 304 69 77 46 65 119 131 138 4 164 69 335 312 77 49 38 89 18 49 92 283 106 322 252 108 322 101 77 285 38 1 105 76 88 78 104 212 175 203 61 336 9 79 145 122 79 58 56 85 55 96 68 79 80 120 82
346 344 344 344 344 345 345 350 352 354 354 357 24 52 69 14 311 48 86 75 107 106 88 323 283 312 322 21 47 277 297 30 56 58 54 81 141 144 158 206 40 34 112 95 75 94 93 47 68 89 100 313 84 129 150 180 184 97 123 189 224 245 30 150 156 85 25 51 56 70 44 355 322 339 298 225 204 84 349 10 40 67 91 83 56 71 134
340 338 337 338 338 340 342 344 349 350 352 358 30 49 80 334 345 41 57 344 85 338 34 13 280 302 3 351 277 336 357 11 25 67 42 19 60 53 68 72 68 8 45 19 38 118 65 99 90 37 132 287 78 110 156 26 60 62 22 289 352 55 63 183 72 91 137 180 197 146 123 257 263 263 232 225 206 138 349 24 59 76 121 132 113 80 140
337 334 332 331 332 333 336 340 345 348 347 360 43 67 87 73 343 4 101 109 93 171 165 259 325 284 315 237 302 327 329 46 63 72 60 23 28 55 71 77 80 57 13 57 9 16 26 54 354 232 180 298 54 346 18 180 61 33 20 325 304 92 181 134 140 157 212 240 198 173 143 174 222 197 220 236 274 75 22 212 128 80 138 143 111 67 357
337 331 328 327 326 327 329 334 341 344 346 355 39 35 359 21 326 14 49 99 102 96 98 236 294 13 67 242 333 343 343 53 68 87 92 49 44 51 74 66 99 142 93 77 109 110 117 250 188 94 7 194 94 292 39 5 41 158 239 277 312 263 152 150 174 154 323 201 171 169 134 168 205 226 208 226 168 128 172 215 192 160 170 179 141 182 196
334 330 325 325 323 322 322 326 335 342 347 17 53 48 39 324 335 49 11 47 107 118 83 59 68 233 310 353 308 308 315 352 29 47 39 21 31 41 97 105 77 67 95 135 143 28 243 188 299 285 283 316 118 177 75 182 104 255 270 282 267 306 219 220 156 98 187 196 163 181 163 146 76 149 149 197 164 148 153 181 176 196 242 192 191 241 236
331 327 324 322 321 319 316 320 329 340 5 51 77 53 41 42 323 295 14 46 96 105 127 108 223 282 357 280 172 322 338 341 357 20 17 80 91 70 4 87 69 111 24 360 45 189 123 8 37 332 344 68 111 96 162 131 149 307 267 244 252 266 191 169 222 229 166 111 108 117 91 95 103 70 36 126 164 160 124 174 210 197 203 187 224 202 262
328 325 322 320 318 316 313 313 320 346 55 71 85 151 176 191 229 247 340 11 112 51 58 44 344 11 284 314 297 276 352 10 38 2 5 26 17 6 16 48 150 23 122 138 185 76 343 225 117 298 55 2 72 96 82 84 151 244 249 250 253 233 277 112 87 95 81 124 102 58 61 65 190 155 190 193 173 175 161 181 204 234 210 182 193 215 231
326 323 320 320 318 314 313 310 304 281 232 230 239 267 256 268 279 277 262 345 46 96 122 88 137 223 15 256 317 340 23 16 5 20 356 330 350 12 16 359 32 62 6 81 338 180 205 136 161 64 291 28 96 106 108 170 214 234 215 202 210 208 209 255 337 70 130 178 124 140 206 203 216 220 172 149 159 169 166 167 193 133 80 62 350 332 333
324 320 318 318 318 318 316 306 304 190 44 45 75 53 335 15 13 87 82 75 103 108 74 108 56 16 264 306 72 280 21 69 292 30 5 311 285 65 283 30 349 131 320 66 264 79 338 67 196 226 316 26 38 81 293 261 244 262 287 254 184 91 74 61 51 169 217 226 305 243 204 169 113 105 102 116 129 43 106 98 100 68 31 354 275 260 258
321 317 314 318 320 321 346 68 63 56 120 316 243 252 251 334 324 158 98 107 76 345 24 11 107 69 349 359 45 271 303 77 326 310 108 281 25 67 292 57 321 62 291 98 39 78 55 246 177 86 237 318 44 219 246 254 280 257 154 136 126 112 78 114 255 229 248 47 120 109 121 123 121 134 159 167 162 167 128 95 103 125 344 304 276 279 281
319 315 313 315 317 342 26 26 53 54 27 360 258 292 326 348 76 78 92 91 117 155 94 254 69 194 146 153 319 284 306 36 300 311 219 290 348 14 90 113 19 269 263 68 212 8 180 277 77 287 280 57 227 190 229 207 223 218 188 190 187 172 182 186 184 144 65 67 88 115 119 133 148 172 180 184 182 180 165 158 231 79 170 261 275 275 284
322 317 312 330 39 56 30 180 297 95 203 244 274 298 322 104 14 59 13 28 358 100 142 158 71 228 164 223 254 277 54 338 336 7 340 25 279 290 38 41 199 297 30 2 5 39 267 56 101 110 173 179 245 227 225 204 198 189 200 206 192 197 184 120 142 121 93 69 74 102 160 162 166 175 172 191 209 165 148 223 220 206 237 250 261 275 265
326 341 53 33 37 53 18 338 339 296 317 300 310 41 360 21 83 341 1 35 278 49 342 68 197 243 360 93 239 252 69 292 51 36 311 238 35 310 20 103 229 141 341 276 255 185 63 40 38 161 261 252 255 261 249 224 227 229 213 177 179 186 181 147 132 114 109 89 23 114 100 172 206 220 183 219 214 222 228 231 236 220 225 236 245 249 283
10 29 42 28 86 113 184 258 321 326 311 255 38 80 307 357 59 27 329 286 15 26 296 106 243 165 129 162 275 293 151 136 28 34 46 277 98 312 12 48 297 68 327 14 303 42 323 335 352 25 288 294 336 287 275 250 252 229 204 187 166 167 155 163 162 155 174 189 197 192 176 184 196 218 211 229 255 250 248 258 262 242 232 243 253 260 264
25 31 19 6 60 252 274 292 327 322 37 56 332 103 218 322 90 304 305 49 343 289 53 290 215 169 187 188 201 295 332 49 321 283 207 306 77 147 268 98 271 83 283 43 251 20 109 275 285 44 295 284 261 270 310 281 245 236 165 159 151 157 160 159 199 207 175 214 206 210 204 193 181 178 185 209 225 254 282 266 249 254 250 249 251 254 256
21 43 20 21 261 293 302 312 337 54 65 49 7 1 64 6 344 192 59 53 123 237 196 180 353 15 360 74 131 216 287 87 135 130 118 235 251 85 46 263 246 64 307 261 278 65 71 78 360 187 236 239 263 292 320 323 301 222 188 179 154 147 161 187 204 187 169 159 152 152 180 180 175 180 186 192 196 214 236 260 280 271 259 262 256 249 244
201 202 221 232 279 286 312 346 64 48 11 95 116 305 276 229 265 14 126 90 311 293 323 143 340 304 289 189 213 148 25 156 125 103 93 351 302 104 223 323 8 91 262 238 104 53 75 215 312 294 258 256 264 291 282 272 279 184 204 181 153 159 178 191 195 209 197 179 184 181 175 174 184 191 193 186 204 220 247 268 276 271 250 252 257 269 269
296 273 182 297 335 326 119 43 315 96 94 4 36 26 346 48 354 88 300 284 286 105 276 222 243 196 263 66 328 168 186 229 231 325 67 235 284 56 81 15 51 304 237 328 67 53 38 223 232 250 256 272 283 304 256 223 237 235 232 200 190 198 189 189 190 196 200 186 183 183 183 180 200 212 198 185 194 259 260 240 242 256 259 255 258 264 265
147 83 89 341 36 290 80 46 307 43 16 66 90 105 322 18 316 1 18 290 295 318 297 4 295 91 275 289 156 335 4 6 59 78 44 360 86 308 54 234 224 242 281 38 33 201 230 225 211 234 269 294 299 283 251 236 223 221 251 237 207 200 216 240 130 136 194 182 182 194 161 198 226 208 161 189 190 222 261 280 261 236 248 263 277 282 284
88 1 26 19 26 277 61 314 327 104 89 289 115 155 150 152 243 182 206 248 136 282 313 59 117 6 295 282 49 29 106 212 313 101 252 335 20 65 117 257 252 28 55 265 331 324 346 284 272 273 274 283 284 286 260 230 212 194 193 187 206 214 193 191 212 207 214 195 207 179 199 216 222 247 231 224 220 211 218 254 268 242 236 231 265 306 298
69 133 50 59 1 331 98 168 337 42 309 151 147 198 169 243 185 241 254 194 293 317 341 310 312 155 190 267 139 219 22 86 32 243 162 79 108 264 243 205 93 53 358 43 6 237 221 237 260 263 255 256 268 284 286 255 222 185 151 191 214 208 209 202 208 209 216 212 208 187 213 203 211 225 251 252 221 221 225 244 249 231 216 213 254 249 272
46 9 82 107 97 276 92 107 283 193 174 215 225 180 180 214 211 226 260 302 282 265 280 239 225 245 199 305 24 350 33 60 171 259 81 69 206 258 24 99 266 187 156 269 252 253 267 256 244 246 258 264 274 281 288 255 187 191 212 220 206 213 205 204 209 216 228 208 208 209 218 215 220 224 244 300 283 255 240 239 242 219 188 208 231 217 242
61 243 87 87 241 211 86 256 229 302 276 196 240 223 248 285 350 320 284 224 231 277 268 285 306 339 339 306 74 203 244 360 323 291 182 202 39 38 13 28 295 254 183 173 233 221 235 251 241 250 251 249 262 282 287 243 211 195 205 219 227 224 211 205 214 227 213 204 211 212 215 216 217 218 221 235 268 285 270 246 222 203 209 227 230 155 162
146 102 98 195 197 166 222 247 40 339 281 317 335 340 299 310 278 265 276 296 344 316 247 175 208 122 267 248 89 17 282 180 141 242 63 32 157 222 154 226 311 314 260 182 224 218 222 235 235 239 269 291 284 264 261 217 216 214 201 207 219 219 209 209 219 222 211 209 215 212 217 215 207 214 224 224 254 273 263 210 184 186 196 193 208 206 206
57 343 29 65 9 322 247 44 59 303 314 334 341 277 234 228 265 279 243 311 290 323 335 242 121 110 252 147 282 325 249 240 181 28 77 215 210 177 78 293 224 194 260 242 230 244 244 249 256 275 262 252 263 252 258 261 211 225 241 231 220 195 206 213 226 225 214 211 212 216 218 200 207 214 212 224 227 237 180 168 190 188 196 195 185 200 214
348 134 232 186 168 219 151 218 187 238 293 277 260 258 177 218 218 269 251 336 8 33 36 239 266 114 95 33 68 325 257 159 103 193 167 203 192 139 185 204 234 206 228 229 221 241 255 249 211 243 269 268 259 255 241 238 231 227 219 223 228 236 244 229 229 229 227 223 219 216 215 219 218 213 221 206 197 214 230 238 213 203 191 191 188 189 208
65 357 276 281 229 208 188 146 157 214 232 240 238 246 159 243 244 245 265 58 47 65 264 254 95 94 87 203 221 204 357 25 235 55 348 270 165 155 213 202 223 213 219 240 259 242 239 247 223 224 231 239 245 246 247 235 222 224 220 220 206 204 220 233 237 235 232 225 209 211 226 231 227 205 172 173 187 194 231 249 225 203 202 193 196 196 198